Powrót do katalogu

EXPRESS AM-2

AktywnyŁącznośćGEO
NORAD 28629·PAYLOAD·🇷🇺 Russia

Wystrzelony Mar 29, 2005 z Baikonur Cosmodrome

Loading…

TLE

ŚwieżeSource: Space-Track

Epoka: Sep 14, 2026, 09:09 UTC

1 28629U 05010A   26257.38132516 -.00000099  00000-0  00000-0 0  9993
2 28629   9.9133  54.3711 0022360 114.2229  63.0307  0.99039428 41445

Śledź EXPRESS AM-2 w czasie rzeczywistym z AllMySat

Download on the App Store